OBJECT E (52801 NORAD) Tracking and Keplerian Element Data

This shows tracking and keplerian element data for the satellite.

Feedback or suggestion? Click here.




ElementValue
Catalog52801
NameOBJECT E
Epoch Orbit53
Epoch Day159.51823971
Epoch Year2022
RAAN271.4403
Inclination41.4611
Eccentricity0.0051726
Argument of Perigee128.0561
Mean Anonmoly288.5231
Mean Motion16.0924138
Decay Rate-2.422E-05
L11 52801U 22060E 22159.51823971 -.00002422 76598-5 00000+0 0 9991
L22 52801 41.4611 271.4403 0051726 128.0561 288.5231 16.09241380 531

Live tracking and technical data element details for OBJECT E (NORAD 52801). OBJECT E can be tracked NOW for your location showing map with azimuth and elevation plus other details from your city location.

Track the satellite on the map from your city or location and see movement details for azimuth, elevation, latitude, longitude, range, height, and movement on the map or in text.







IsCatalogInMostPopularTable: catalog: 52801, numindb: 4
Update: records affected: 1



GetName: 52801 OBJECT E

Hit Count: updated at: Sun, 14 Aug 2022 00:31:39 GMT